Theta_e
320 320 320 319 319 319 320 320 320 320 320 320 320 320 320 320 320 321 321 320 320 320 320 320 320 320 320 320 320 321 320 316 314 314 313 313 324 330 345 350 349 348 341 328 320 321 319 318 318 322 322 326 328 329 335 334 336 334 323 318 315 317 317 321 322 325 332 330 331 330 334 332 328 334 339 340 337 338 328 328 331 334 335 337 339 342 343 343
320 320 320 319 319 319 319 320 320 320 320 320 320 320 320 320 320 320 320 320 320 320 320 320 320 320 320 320 321 321 318 315 313 313 313 325 337 334 337 345 354 349 341 315 314 317 318 316 318 320 319 321 332 328 334 330 336 324 322 319 315 320 322 327 326 329 328 329 334 334 336 335 332 333 338 331 331 328 324 326 329 330 334 337 340 341 341 341
320 320 320 320 319 319 319 319 319 319 319 319 320 320 320 320 320 320 320 320 319 319 319 319 319 320 320 320 320 321 317 314 314 313 319 342 337 343 344 348 354 351 317 310 315 318 319 320 320 318 318 319 326 325 330 326 333 333 325 316 316 328 329 331 332 330 332 335 334 333 334 334 333 338 342 330 326 328 321 323 327 328 329 333 337 339 339 340
320 320 320 320 319 320 320 320 319 319 319 319 319 320 320 320 320 319 320 319 319 319 319 319 320 320 320 321 321 319 315 312 311 318 324 348 347 341 344 348 352 353 313 314 316 318 319 317 316 320 318 319 322 326 321 325 328 330 327 319 324 331 328 331 333 333 336 336 335 336 333 330 331 335 335 328 324 321 323 328 328 328 330 333 335 337 338 338
320 319 319 319 319 319 319 319 319 319 319 319 319 319 319 319 319 319 319 319 319 319 319 319 320 320 320 321 321 318 312 304 313 321 326 352 354 345 343 348 353 335 312 312 313 311 310 310 314 315 317 315 319 319 319 330 334 333 333 334 332 332 328 332 334 336 335 340 336 334 329 328 335 333 333 329 322 319 325 329 331 332 332 332 333 335 338 337
319 319 319 319 319 319 319 319 319 319 319 319 319 319 319 318 318 318 319 318 319 319 319 319 320 320 321 321 318 315 308 296 313 317 358 352 352 348 346 347 356 318 312 311 308 311 313 313 313 312 313 314 314 313 326 335 338 325 333 333 334 333 329 332 334 335 336 334 332 330 333 336 333 331 333 331 329 332 332 333 333 333 333 334 336 336 336 336
319 319 319 319 319 319 319 318 318 319 318 318 318 318 318 318 318 318 318 317 318 318 319 320 320 321 321 321 316 315 310 308 315 317 351 354 351 348 348 351 346 310 307 306 307 307 309 310 315 315 315 314 315 318 330 333 337 331 326 333 333 335 330 335 333 334 334 334 332 333 333 330 331 327 335 331 337 332 332 334 333 333 334 335 334 335 335 336
319 319 319 318 318 318 318 318 318 318 318 318 318 318 318 318 317 317 317 317 317 318 319 319 320 321 321 316 314 309 309 310 318 331 355 352 348 348 344 328 317 310 307 305 305 306 310 311 313 319 314 312 316 325 334 333 335 331 330 335 334 336 335 336 336 335 333 334 337 337 332 331 332 328 330 329 331 331 332 333 333 333 333 334 334 334 335 335
318 318 318 318 318 318 318 318 318 318 318 317 317 317 317 317 317 317 317 317 317 318 319 320 320 321 321 315 312 305 305 318 325 345 345 335 335 326 316 313 312 307 307 307 308 310 315 313 317 318 309 312 317 322 332 328 324 334 334 336 335 334 335 336 335 335 336 338 339 336 332 335 337 332 328 332 329 331 332 332 332 332 331 331 333 334 334 334
318 318 318 318 318 318 318 318 318 317 317 317 317 316 316 316 316 316 317 317 318 318 319 319 320 320 316 312 311 300 310 327 335 340 334 328 324 314 312 312 309 307 306 307 310 311 311 313 317 319 317 314 316 313 326 326 323 338 335 336 335 337 336 336 333 334 337 338 337 332 331 333 339 329 319 332 329 331 330 330 331 331 330 331 332 333 333 334
318 318 318 318 317 317 317 318 317 317 317 317 316 315 316 316 316 316 317 317 317 318 318 320 320 319 313 315 305 298 318 325 330 332 327 324 315 310 310 310 308 306 306 309 310 314 315 316 319 321 319 310 312 324 329 332 339 336 335 334 335 336 336 336 332 335 338 334 336 333 330 335 334 330 322 327 329 331 328 328 329 329 329 330 331 332 332 333
318 318 318 317 317 317 317 317 317 317 316 316 316 315 316 316 316 317 317 317 317 318 319 320 321 317 314 313 306 302 318 320 331 328 323 319 313 312 311 310 309 308 308 308 311 315 318 319 321 320 307 312 313 333 334 340 337 334 333 327 331 333 331 335 333 337 340 333 340 339 326 323 327 322 328 327 329 329 328 327 328 329 329 330 330 331 331 332
317 317 317 317 317 317 317 317 317 316 316 315 315 315 316 316 316 317 318 317 317 318 319 320 321 318 314 301 309 318 318 318 318 327 322 317 315 313 311 308 310 309 310 310 311 316 319 320 322 318 315 310 323 319 334 340 335 335 333 328 325 324 325 332 336 338 336 336 341 335 311 314 322 328 331 328 328 328 326 326 327 328 329 330 329 329 329 331
317 317 317 316 316 317 317 317 316 316 315 315 315 315 315 316 317 318 319 318 319 319 321 322 319 317 313 307 317 324 323 319 319 318 319 317 311 309 308 308 310 310 311 311 312 314 315 316 315 314 315 313 327 340 336 333 333 325 329 327 317 317 316 331 333 335 330 337 340 337 312 314 323 329 334 328 328 326 324 325 326 327 328 328 328 327 328 329
317 317 317 316 316 317 316 316 316 315 315 315 314 314 315 315 317 320 321 320 319 319 320 322 319 314 310 312 322 326 344 340 321 311 315 314 310 308 307 307 307 311 312 311 311 314 315 315 314 312 307 315 332 329 326 325 326 325 317 312 318 314 317 328 335 336 324 333 341 334 313 316 322 326 335 328 327 327 323 324 325 326 327 327 326 326 326 327
316 316 317 316 316 316 316 316 316 315 315 314 313 314 315 316 319 320 322 320 319 319 320 316 316 315 309 304 314 334 319 308 308 312 311 317 313 309 308 307 308 310 312 314 316 315 315 315 310 307 308 309 308 319 320 319 318 322 314 312 312 316 318 322 330 336 333 326 338 331 315 320 321 327 332 329 327 326 323 324 324 325 326 325 325 326 326 326
316 316 317 316 316 316 316 315 315 315 314 314 313 314 315 318 320 322 322 321 318 320 317 314 318 316 301 316 324 314 312 311 309 310 312 317 314 312 308 306 307 308 312 314 316 315 314 313 311 310 309 301 306 321 313 309 310 313 317 312 318 316 317 314 326 332 333 329 325 331 322 320 323 326 329 328 327 325 323 323 324 324 325 324 325 325 325 325
316 316 317 316 316 316 315 315 315 314 313 313 313 313 313 317 319 319 319 322 321 320 317 320 317 310 306 317 308 310 315 311 309 310 311 318 316 312 309 306 308 308 311 311 313 310 313 306 307 299 301 302 302 303 307 304 311 310 310 311 312 319 319 317 318 325 330 326 323 329 325 327 325 326 328 327 329 325 322 323 323 323 324 324 324 325 325 324
316 316 316 316 315 315 315 315 314 314 313 313 313 316 318 318 317 315 314 317 313 312 304 310 308 298 296 306 312 314 316 314 314 314 313 316 319 317 312 311 311 308 306 305 305 308 309 305 305 301 296 298 299 302 303 307 318 316 315 314 314 313 315 315 323 330 331 324 322 321 320 323 325 323 326 328 328 324 323 324 323 324 324 324 324 324 324 324
316 316 316 316 315 315 315 315 313 313 313 310 309 312 315 308 307 312 316 316 310 308 308 309 313 313 312 312 312 315 319 319 314 315 315 317 317 315 313 311 310 309 304 301 303 307 308 299 295 295 297 299 302 305 307 309 320 320 318 316 314 315 318 322 324 326 330 326 319 321 321 321 323 325 332 331 332 323 323 323 323 323 324 324 324 324 324 323
316 316 316 315 315 315 315 314 313 312 312 309 308 309 303 303 301 300 304 311 314 315 311 311 316 313 310 314 315 313 311 313 314 312 313 317 312 311 307 308 304 301 301 305 304 306 307 298 296 299 301 302 303 305 306 309 322 319 316 314 313 316 313 322 323 326 330 324 319 322 322 322 323 324 328 332 328 321 323 323 322 323 323 324 324 324 324 324
316 316 315 315 314 314 314 313 312 312 311 309 310 310 309 309 311 312 308 302 307 313 314 314 315 313 317 316 318 317 313 307 307 308 314 313 310 305 304 304 301 298 301 304 304 300 298 296 299 301 303 303 304 304 304 313 319 318 314 312 311 313 322 325 325 327 328 325 318 320 319 320 323 325 326 331 332 332 333 331 325 323 323 323 324 324 324 324
316 316 315 315 314 312 312 312 311 310 309 308 311 311 310 313 316 318 312 305 303 309 309 310 310 312 313 318 312 314 308 304 302 307 311 311 307 306 303 301 300 299 301 301 298 295 294 296 301 303 303 302 303 303 302 302 318 316 314 311 309 316 315 312 322 326 327 326 317 319 319 319 325 326 327 334 334 334 337 337 336 328 323 323 324 324 323 325
316 316 315 314 313 312 312 311 310 309 306 309 310 310 315 315 315 313 308 300 300 307 309 310 312 312 312 310 309 309 306 305 306 305 316 309 304 305 304 302 299 299 297 299 298 295 295 300 303 303 301 301 301 302 301 299 307 317 316 314 314 316 318 318 318 323 326 325 325 321 316 314 319 320 323 329 336 335 335 332 332 333 335 334 326 325 326 326
316 315 315 314 313 312 310 309 307 310 313 309 309 313 315 315 315 313 305 301 302 302 313 311 314 315 315 315 312 305 307 307 307 311 314 310 307 303 301 306 301 297 298 300 299 296 297 302 303 301 300 300 300 299 301 300 299 314 319 318 318 320 319 320 321 319 317 314 321 317 305 306 316 320 322 324 328 329 334 330 329 330 331 333 327 324 327 328
315 315 315 313 313 311 309 311 313 312 311 310 313 318 317 316 316 313 306 297 293 302 307 302 306 302 312 303 310 307 306 301 307 310 314 312 315 307 305 299 301 294 298 297 297 296 298 303 301 300 300 299 299 299 302 304 298 309 314 320 322 322 321 319 318 318 310 307 316 322 306 302 315 317 321 323 325 325 332 331 331 331 330 332 328 325 327 327
315 315 314 313 312 310 307 311 311 311 306 308 313 313 314 315 322 313 302 294 292 304 298 302 300 301 308 305 307 305 291 294 307 314 313 318 310 314 305 298 301 302 302 302 298 292 301 299 299 300 300 299 297 297 302 304 300 302 317 321 324 322 319 319 319 316 312 321 321 321 317 305 306 315 322 324 323 323 326 330 331 330 330 331 331 327 327 328
315 314 312 311 310 309 308 309 308 307 308 310 314 317 318 318 317 310 299 288 285 300 299 298 304 311 308 306 306 301 301 308 304 308 314 314 313 309 305 302 299 298 300 300 288 296 298 298 298 298 298 297 296 300 303 305 304 312 321 323 322 322 321 321 318 315 315 314 308 315 320 306 305 313 323 324 319 321 323 326 329 330 330 330 330 328 327 328
314 313 312 311 309 309 310 308 309 308 313 315 318 319 321 320 311 302 293 286 301 300 310 300 312 308 307 306 303 304 303 312 307 310 314 314 313 308 301 304 304 303 303 301 294 296 299 300 300 300 298 296 301 303 304 316 313 319 324 324 324 324 323 321 315 314 313 309 304 311 316 304 303 314 318 322 320 318 321 325 328 330 331 330 330 328 328 328
314 312 312 310 309 309 308 309 307 313 316 316 318 319 321 311 303 296 291 285 302 291 303 303 302 300 303 298 299 304 302 306 312 313 312 307 309 311 309 310 305 302 301 302 299 300 302 309 312 302 300 302 303 304 308 316 320 324 324 323 319 316 316 316 313 312 308 301 304 313 315 310 300 311 316 316 318 321 322 325 328 330 332 332 332 328 328 328
312 311 310 310 306 313 312 309 314 316 317 318 320 319 313 304 298 289 286 293 303 298 303 300 298 304 299 298 294 301 302 308 309 310 303 309 303 307 305 301 306 300 297 297 297 300 301 302 301 303 310 307 308 308 312 316 324 322 316 315 313 309 313 309 308 309 298 296 306 314 314 314 300 304 316 322 326 325 324 323 326 328 331 332 332 329 328 328
309 309 310 309 310 312 309 308 314 316 318 320 317 312 303 293 296 288 289 310 292 296 296 296 299 298 298 299 298 298 298 304 307 307 299 299 299 298 298 293 298 293 290 291 292 296 297 297 299 303 315 308 306 305 303 309 313 314 315 312 304 298 303 299 305 299 294 295 309 316 315 309 307 310 317 322 324 326 327 327 328 329 331 333 333 331 330 329
308 308 308 310 311 307 310 314 316 317 318 317 312 306 298 291 287 293 296 301 293 298 297 302 298 298 298 297 296 300 304 304 311 306 303 301 297 298 300 300 300 297 290 294 292 292 290 297 300 301 307 310 306 300 301 302 303 310 310 306 300 294 294 292 296 300 298 308 314 313 316 307 313 315 320 322 325 328 329 330 331 331 331 334 335 332 331 330
308 308 306 309 309 310 313 316 318 317 315 316 307 303 299 292 290 316 299 299 297 302 302 300 300 299 298 293 296 300 297 305 306 305 302 298 296 295 296 300 300 299 299 295 292 289 288 288 294 300 297 307 305 301 302 300 300 300 306 309 302 301 296 290 293 292 297 300 308 315 307 303 307 310 325 326 327 328 330 332 333 333 333 335 337 333 332 330
308 307 308 310 310 311 311 313 314 316 315 309 303 297 291 290 296 295 294 295 298 301 298 301 300 298 297 300 303 303 300 299 307 305 301 296 292 294 295 296 300 300 300 292 295 297 292 290 295 302 305 307 306 307 307 304 301 301 303 305 299 297 303 296 300 300 301 302 304 306 304 311 312 324 328 328 328 327 330 331 332 331 332 333 334 334 332 331
308 312 310 310 313 315 313 314 314 315 311 304 299 294 292 297 295 300 297 303 303 297 298 297 298 295 296 297 304 302 306 300 303 302 300 300 299 296 300 300 300 301 296 292 299 292 297 291 300 304 307 306 306 308 308 305 295 299 301 297 298 305 311 305 308 312 306 300 298 308 307 312 320 321 324 326 325 325 329 330 330 330 331 331 331 333 334 331
314 316 314 317 318 321 317 317 317 315 309 303 298 292 297 301 305 304 311 304 299 300 297 290 293 294 298 296 300 301 301 302 302 300 296 302 297 302 301 301 303 301 302 300 298 299 292 294 302 304 302 306 307 306 307 308 305 301 295 297 304 311 313 304 296 299 295 291 295 306 304 304 306 302 321 322 323 324 326 328 329 330 330 329 330 333 334 335
312 316 320 318 316 322 320 320 319 313 307 304 296 310 308 301 307 305 307 304 300 299 295 295 295 299 298 295 299 301 303 296 297 300 298 301 300 308 303 302 305 304 304 305 300 301 296 290 296 302 304 305 308 306 304 306 307 300 299 305 299 293 300 301 300 292 292 292 293 299 305 305 307 305 314 317 321 322 325 327 328 328 329 328 330 334 334 335
312 314 307 312 316 323 321 322 316 310 304 298 297 299 309 305 308 307 308 306 303 299 293 297 296 298 297 296 300 303 303 294 298 299 298 301 295 304 303 304 302 306 306 307 302 300 302 294 295 301 302 304 301 300 294 296 303 306 305 300 301 298 296 299 300 300 298 292 294 294 300 296 310 310 317 319 322 323 325 326 327 329 330 329 331 334 333 333
315 307 304 312 318 324 323 320 312 307 302 297 296 301 305 304 307 308 308 307 300 297 299 298 300 295 297 298 300 296 301 300 297 297 302 302 297 304 303 306 301 303 306 307 303 307 300 300 293 299 303 302 295 298 294 296 295 298 299 294 299 301 304 304 305 303 297 294 291 291 292 298 309 320 321 320 322 324 325 326 328 330 331 332 333 334 335 333
314 310 310 319 323 325 322 314 306 303 301 300 303 303 305 303 307 308 307 305 301 303 298 300 297 295 298 295 296 299 299 298 298 295 299 299 298 295 307 305 304 302 304 301 303 302 300 298 294 297 296 292 294 299 300 300 299 297 297 295 296 296 300 296 294 304 305 296 290 293 291 301 314 324 324 324 324 325 327 327 327 330 332 332 333 335 334 336
306 301 304 316 323 323 314 303 301 304 301 299 299 303 303 314 305 305 303 304 302 298 303 302 300 300 298 298 298 299 299 296 297 297 300 296 301 302 305 306 304 306 300 298 300 306 303 303 298 295 296 296 300 304 305 305 303 300 301 297 298 296 298 293 290 295 302 304 308 300 297 299 317 325 325 324 325 329 330 328 328 330 332 331 333 338 338 338
305 300 311 316 317 316 306 300 307 305 301 302 307 306 307 306 304 303 302 302 300 302 300 300 300 298 301 300 299 298 298 299 299 296 298 302 302 303 305 306 305 305 301 299 304 303 320 298 294 295 297 299 302 305 304 306 304 302 300 300 299 296 296 297 295 300 300 302 297 298 295 298 316 324 325 324 325 327 329 331 330 331 332 333 334 336 337 338
307 308 308 315 318 314 304 297 296 296 299 305 306 305 307 305 304 301 301 301 300 299 299 300 301 301 300 302 300 299 300 293 300 297 297 301 302 306 306 305 306 302 302 300 300 305 297 298 294 291 288 291 296 300 301 304 302 297 295 295 298 298 299 300 303 301 299 301 300 295 290 296 314 324 325 326 325 327 329 332 333 331 333 333 333 335 336 338
308 312 310 311 316 311 302 301 298 296 300 302 302 302 303 305 304 303 302 300 302 300 299 297 302 300 299 301 302 301 303 299 297 299 300 300 302 306 306 304 305 303 310 309 323 307 299 301 295 289 287 286 286 286 289 293 297 299 300 298 298 299 297 298 295 297 291 300 301 296 294 302 314 321 323 324 325 325 328 330 332 333 333 334 333 333 335 337
306 299 306 306 309 309 306 307 304 301 298 301 300 301 304 301 302 301 302 302 303 301 303 301 300 301 300 299 298 299 299 300 297 298 300 299 300 303 304 303 305 307 321 332 317 307 300 302 300 297 293 289 292 293 298 305 298 295 299 300 308 308 303 298 294 295 291 297 300 300 304 309 313 317 320 322 323 324 325 328 329 331 333 334 333 334 335 335
310 303 304 298 307 303 302 302 302 302 296 302 297 304 302 302 304 301 305 298 302 301 302 301 301 298 298 298 298 299 300 300 300 299 299 299 302 302 303 303 303 321 329 315 316 304 299 293 299 301 302 298 299 299 300 303 298 299 302 303 308 310 309 298 294 293 298 301 294 304 310 310 312 317 320 321 322 323 325 327 328 330 332 333 333 334 339 335
301 305 309 313 304 292 300 301 302 300 302 301 301 305 301 300 301 301 304 304 304 302 299 302 301 301 302 301 300 298 299 299 299 297 300 300 300 301 300 302 303 311 311 303 309 302 297 295 300 301 299 299 300 300 301 303 306 307 308 308 310 311 311 308 305 299 305 299 297 304 311 310 313 318 321 323 324 323 325 327 329 331 333 333 333 334 335 335
312 312 311 319 308 308 309 309 310 307 303 303 302 306 301 301 300 304 300 301 302 301 302 297 299 301 302 304 302 300 299 293 295 301 301 299 300 299 296 299 303 303 302 301 302 306 297 295 303 301 299 299 301 302 304 307 308 308 308 310 311 311 310 311 312 312 306 303 306 310 310 310 316 320 322 324 326 326 326 329 330 330 331 331 332 333 334 335
311 311 308 317 316 311 310 307 307 305 300 306 299 302 303 302 299 301 303 300 299 300 303 300 300 301 302 302 301 298 302 300 301 299 304 303 296 301 300 301 298 301 302 301 305 303 297 297 309 299 295 297 303 304 306 308 308 306 307 309 312 312 312 312 312 313 315 313 313 313 312 312 317 322 322 326 327 328 329 328 328 329 330 331 331 332 333 333
314 318 318 311 308 308 312 308 305 303 299 300 298 300 303 302 300 303 303 304 300 300 302 300 301 302 303 302 302 302 302 305 302 301 302 305 298 302 299 299 301 299 300 300 302 304 299 296 301 297 291 295 301 301 304 309 307 305 304 305 309 311 309 310 309 312 312 310 313 312 309 309 317 324 325 325 325 326 325 326 327 329 330 329 329 330 331 332
314 317 320 315 306 317 307 308 307 303 297 299 302 303 303 301 304 302 301 305 303 302 302 301 303 300 299 299 302 305 305 303 302 302 303 302 302 302 301 302 301 301 299 301 304 299 299 295 293 293 290 293 300 301 302 304 303 299 300 303 310 312 314 315 315 316 314 313 311 309 309 317 321 324 322 321 324 324 325 325 324 326 329 330 329 329 330 331
Wind_Speed
11 11 12 12 13 13 13 14 14 14 14 13 13 13 12 12 13 13 12 12 12 12 12 12 12 12 12 13 13 14 13 9 9 3 2 12 8 8 7 3 7 11 12 2 1 1 2 3 4 5 3 1 3 4 6 6 4 3 1 2 2 3 3 7 6 9 3 3 5 10 3 0 6 3 2 2 2 1 11 11 9 13 10 14 16 17 18 18
11 11 11 12 12 12 13 13 13 14 14 14 14 14 13 13 12 12 13 12 12 12 12 12 12 12 13 12 13 14 11 6 7 7 17 8 9 12 10 7 1 11 11 2 5 5 4 6 8 5 4 3 4 5 4 1 8 4 3 3 6 4 4 10 6 10 6 5 6 9 6 1 3 5 2 3 3 7 12 11 14 14 17 17 17 18 17 17
12 12 12 12 13 13 13 13 13 13 14 14 14 14 14 14 13 13 13 12 12 12 12 12 12 12 12 13 12 12 8 6 4 7 12 16 16 12 13 7 5 13 10 3 4 5 7 4 3 3 3 4 3 6 5 2 6 2 1 3 3 4 3 4 6 8 9 7 8 11 7 5 3 3 1 4 0 9 14 14 14 18 18 19 19 18 17 15
12 12 12 12 12 13 13 14 14 14 14 15 15 15 14 14 13 13 13 13 13 13 12 12 12 12 12 13 12 7 4 4 1 2 5 3 15 17 12 10 8 10 4 0 2 3 1 5 5 3 4 7 5 5 4 6 4 2 3 1 3 3 3 4 7 7 2 2 5 9 9 6 5 7 2 8 9 9 11 15 19 20 20 19 20 18 16 17
12 12 12 12 12 13 13 13 13 14 14 15 16 15 15 14 14 13 13 12 12 12 12 11 12 12 12 10 11 5 3 1 2 3 2 5 7 18 15 12 11 6 5 1 0 3 4 3 1 2 4 6 6 4 6 1 4 4 1 0 1 2 2 2 9 9 10 7 5 7 10 8 4 4 3 5 8 8 12 14 18 20 20 20 19 17 17 16
13 13 13 13 13 13 13 14 14 14 14 14 15 15 15 15 14 14 13 12 12 12 12 11 11 12 12 11 7 3 0 1 2 2 3 4 6 15 17 14 11 5 4 1 2 0 1 3 4 2 3 4 3 4 1 7 7 4 1 3 4 3 3 3 4 8 5 7 6 6 5 2 7 3 3 2 4 3 11 18 19 19 17 16 16 17 17 16
13 14 14 14 14 14 14 14 14 14 14 14 14 15 15 14 14 13 13 12 11 11 11 11 10 11 12 11 2 1 1 8 3 8 4 4 8 15 15 11 9 5 4 3 3 2 3 4 2 4 3 3 5 2 4 4 3 7 2 2 4 5 6 4 8 7 2 9 8 8 5 3 5 4 1 3 2 8 15 18 17 16 16 17 17 16 16 15
14 14 14 14 15 15 15 15 15 15 15 14 14 15 15 15 14 13 12 12 11 10 10 10 10 10 10 5 0 1 1 7 12 1 8 8 8 13 13 7 7 5 5 6 6 5 1 3 6 2 4 2 1 4 7 10 7 8 6 4 3 6 4 6 7 7 4 4 3 4 5 6 9 6 6 4 9 17 16 17 17 16 16 15 15 16 15 14
15 15 15 15 15 16 16 16 16 16 15 15 15 15 15 14 13 13 12 11 10 10 9 9 10 9 8 2 1 3 5 8 4 7 9 8 8 9 12 6 5 7 3 3 4 2 1 4 5 6 2 1 2 5 7 9 1 1 6 7 5 6 5 5 6 4 1 3 3 6 5 4 3 11 5 4 15 16 16 17 18 17 15 14 15 15 14 13
15 15 15 16 16 17 17 16 16 16 16 16 15 15 15 14 13 12 11 11 10 9 9 8 8 8 4 0 0 2 3 3 4 8 7 8 8 9 5 5 8 6 4 5 3 5 6 8 5 3 3 5 4 4 12 4 4 8 11 8 7 4 5 4 3 2 5 2 2 4 2 3 1 7 4 5 15 19 17 17 16 17 15 13 14 14 13 13
15 15 15 16 16 17 17 17 17 17 17 17 16 16 15 14 14 13 12 11 9 8 8 7 6 6 2 1 1 3 7 3 3 6 8 9 10 9 8 8 8 7 5 3 8 10 9 7 7 4 5 2 5 5 3 6 15 11 13 11 7 6 6 6 3 1 1 2 5 3 2 1 3 4 6 10 15 18 17 17 16 14 13 12 14 13 10 10
15 15 16 16 17 17 18 18 18 17 18 18 17 16 16 15 15 13 12 9 8 7 5 4 5 1 2 1 2 8 3 4 3 4 8 11 9 11 8 8 9 9 8 6 8 10 10 9 3 2 3 3 3 8 8 10 12 11 10 8 2 3 3 3 2 3 2 1 5 4 6 4 3 8 7 13 15 17 18 17 15 13 12 12 12 12 9 10
15 15 16 16 17 18 18 18 18 18 19 19 18 17 17 16 14 13 11 8 6 5 4 4 2 2 1 3 10 10 9 4 1 5 5 6 2 5 7 5 9 6 10 7 8 6 3 4 4 7 4 1 2 1 5 7 9 10 8 6 5 4 2 3 3 2 3 2 5 4 7 3 1 5 5 16 14 16 16 15 14 11 11 12 11 10 9 9
16 16 16 17 17 18 18 18 18 19 19 19 17 19 18 15 14 12 9 6 7 8 6 4 1 2 1 5 6 5 7 5 4 4 8 6 5 4 4 5 7 6 5 7 8 5 6 5 4 7 3 3 2 2 7 5 2 5 4 4 4 6 2 2 1 2 1 2 4 2 7 4 3 2 4 13 16 17 16 14 13 11 12 11 10 8 8 8
16 16 17 18 18 18 18 18 18 20 19 19 18 21 18 16 13 10 8 6 6 6 4 3 1 1 1 7 7 11 14 7 2 6 8 8 5 2 4 5 6 8 8 8 4 3 5 5 5 3 1 3 6 8 5 3 3 4 5 1 1 4 0 3 2 1 1 4 3 4 5 5 5 4 5 11 14 14 14 13 12 12 12 11 7 9 8 8
16 16 17 18 18 19 18 17 16 16 20 21 19 22 21 14 10 9 5 5 3 3 0 1 3 1 1 8 5 10 5 1 4 9 4 11 7 4 8 8 6 6 6 5 7 7 5 4 5 4 2 4 5 6 4 4 1 1 3 4 3 3 2 0 2 3 7 4 2 1 5 2 2 4 4 9 12 14 13 13 11 13 13 9 8 9 8 8
15 15 14 18 19 19 18 15 16 17 18 20 22 21 16 12 9 4 3 3 2 2 2 0 2 3 1 3 5 5 3 4 3 1 1 5 7 5 5 4 4 6 5 7 5 4 4 2 2 1 1 2 5 8 6 1 1 0 3 3 2 6 5 1 1 1 3 3 2 1 3 4 2 4 6 7 11 12 13 12 13 13 11 7 9 9 10 8
14 14 14 17 19 18 18 15 16 18 18 20 21 16 13 10 4 6 2 2 2 2 3 4 3 2 6 2 2 3 2 3 3 5 5 4 8 5 6 4 3 5 4 3 4 3 2 3 0 4 1 2 6 5 7 7 8 6 3 5 1 2 5 4 5 2 4 4 4 1 2 0 1 4 4 6 9 11 11 12 14 13 10 8 9 9 9 8
17 16 15 14 17 19 19 17 16 16 21 21 20 16 7 1 1 0 0 2 1 1 1 0 1 1 2 6 7 8 3 8 4 4 3 5 3 3 4 3 3 4 2 2 4 3 3 1 1 1 4 3 5 7 8 8 10 10 11 8 8 7 5 5 1 4 4 2 3 6 1 2 2 5 2 3 8 8 9 11 12 11 11 9 8 9 8 7
19 18 15 15 15 18 19 19 15 14 19 13 9 4 1 2 2 1 1 1 4 7 9 6 6 4 6 11 10 5 3 2 4 2 3 3 3 4 3 4 1 2 3 4 2 3 2 3 4 7 7 7 4 8 11 7 11 9 7 8 9 6 4 4 5 5 6 3 8 4 7 11 3 3 3 1 1 6 7 9 12 12 11 10 9 10 8 7
17 16 15 15 15 15 18 16 13 11 13 8 8 2 1 1 1 3 2 7 8 10 9 8 12 9 9 4 4 7 1 1 1 2 4 2 2 3 1 4 3 6 4 5 4 2 3 2 7 8 10 7 8 8 6 3 10 10 8 8 7 5 8 5 6 5 4 4 4 5 7 5 8 12 12 6 2 6 7 9 11 13 12 9 11 12 10 8
17 16 16 15 15 14 16 15 13 9 10 3 2 1 3 3 3 2 3 6 9 10 12 13 5 8 10 12 11 12 2 1 3 3 3 4 3 5 2 2 3 6 4 2 2 1 3 7 7 9 9 7 10 9 4 4 10 10 8 5 7 2 6 6 5 5 5 4 4 3 5 6 8 7 9 5 1 0 2 2 8 13 11 8 12 11 10 7
18 17 16 16 15 16 15 16 13 11 3 2 0 2 4 7 2 1 1 4 10 4 4 6 4 9 11 9 5 3 0 2 3 2 3 3 2 4 3 2 2 3 3 4 7 2 3 7 11 9 7 7 10 8 6 4 6 6 5 6 7 8 8 4 2 7 4 1 5 6 8 3 3 5 7 2 0 0 1 2 1 4 12 9 13 11 10 9
18 19 17 16 17 17 19 16 16 2 3 3 3 7 8 6 9 5 4 3 6 8 5 6 6 3 6 5 2 4 2 2 2 4 2 5 5 3 2 5 5 2 5 4 6 7 9 8 10 9 6 7 11 9 7 5 6 7 10 8 7 10 8 4 9 7 6 5 7 8 5 2 3 5 6 3 1 1 2 3 1 0 2 3 11 9 10 12
19 18 18 17 19 19 19 18 2 1 2 3 6 10 11 10 8 1 1 3 2 5 3 3 4 3 6 2 1 4 2 1 5 3 3 6 3 2 3 2 2 5 5 6 4 6 10 13 2 6 7 7 9 10 10 6 7 8 12 13 13 15 10 11 15 12 5 3 5 12 3 5 6 9 10 4 1 2 0 1 2 2 2 4 9 9 9 13
16 16 18 18 21 21 19 3 1 5 7 5 8 8 4 6 5 5 2 2 4 4 1 2 1 3 0 3 1 3 3 2 5 4 4 6 6 3 1 2 3 7 8 4 5 4 9 8 4 8 9 9 10 9 12 7 6 10 8 10 12 14 12 17 15 9 6 7 10 7 9 2 3 10 10 5 4 4 2 1 4 3 1 3 7 5 9 13
16 14 14 16 18 18 4 0 4 7 3 4 3 4 7 6 1 4 3 1 2 2 1 1 1 1 2 4 4 2 1 3 3 2 5 4 4 3 0 4 2 2 3 1 1 5 3 5 7 7 8 9 6 10 10 6 6 5 7 13 14 12 16 17 16 9 3 4 6 3 2 4 4 9 9 6 5 5 4 5 4 5 2 4 4 6 9 13
17 13 11 12 11 8 2 4 8 3 6 5 8 11 11 8 3 3 2 2 1 3 0 1 1 1 1 4 5 3 4 2 1 2 9 5 4 2 3 2 2 4 2 1 7 9 5 5 6 6 8 7 9 8 7 7 5 5 11 19 18 17 14 14 10 6 5 8 6 7 2 1 2 3 5 6 7 7 9 9 8 7 4 5 4 7 10 13
14 12 11 10 15 10 5 2 0 5 5 4 10 10 8 8 2 2 2 1 3 1 3 2 2 0 0 1 1 1 2 1 1 1 1 1 3 3 4 6 3 5 4 6 8 6 4 8 9 10 6 9 9 9 6 6 4 3 14 13 9 8 9 13 7 8 4 3 7 10 8 3 2 2 7 5 8 12 13 12 10 9 7 6 5 6 10 11
15 12 10 8 8 2 1 2 7 10 6 10 10 12 8 3 3 2 1 1 1 2 1 1 1 2 3 3 1 1 1 2 2 0 1 3 1 1 1 3 3 3 6 4 6 11 10 5 5 4 6 9 10 7 7 12 8 9 12 14 12 10 8 7 4 3 4 0 4 10 11 5 1 6 11 13 16 19 12 8 7 8 7 5 5 7 10 11
14 12 9 3 2 1 1 4 9 4 5 7 11 10 2 2 2 2 1 1 1 2 2 1 2 2 4 2 1 1 2 1 3 2 1 2 3 1 2 4 0 2 3 5 7 5 5 6 4 3 8 4 5 5 2 3 13 15 6 10 11 8 9 10 6 8 2 3 3 9 12 7 2 2 7 11 3 6 12 14 13 11 10 7 6 5 9 11
16 12 10 5 4 4 4 5 2 6 9 9 7 4 3 2 3 2 2 2 1 2 3 2 3 3 4 4 3 3 3 2 3 2 3 3 1 1 2 5 1 1 3 1 4 4 3 7 2 7 3 9 7 5 3 9 8 11 9 7 11 1 4 3 2 2 2 2 2 2 9 1 8 5 5 13 8 7 12 12 14 14 12 10 7 7 8 9
18 14 11 10 8 5 10 11 8 7 7 8 4 2 4 2 1 3 3 3 2 3 1 6 5 4 6 4 3 5 2 2 2 2 6 1 3 4 5 8 5 5 1 2 2 1 6 3 4 4 5 2 4 8 2 6 6 10 10 7 9 4 2 3 3 1 3 4 2 1 7 4 2 5 6 11 15 12 13 13 13 14 15 11 8 6 7 8
20 11 5 7 11 11 6 1 1 7 7 5 3 5 2 3 3 4 4 3 7 2 3 2 3 4 4 4 3 4 2 3 1 1 7 2 1 2 4 6 6 2 1 3 4 1 0 2 5 2 3 3 3 4 7 6 3 5 6 11 8 8 6 5 4 6 6 4 1 2 5 5 4 4 4 2 7 10 10 12 13 12 13 11 6 5 7 8
22 9 5 4 6 12 16 7 2 2 1 4 6 3 2 2 2 2 3 2 2 3 3 2 8 5 3 2 2 1 2 2 4 2 4 4 3 2 3 5 4 4 2 2 3 0 6 5 5 6 4 5 5 3 5 3 2 1 3 5 6 8 5 6 6 7 5 3 3 1 4 2 4 1 3 4 3 9 10 9 9 12 11 12 7 6 4 8
10 3 3 3 4 6 8 5 7 5 3 3 3 2 0 1 2 1 3 2 4 3 7 4 4 4 0 1 3 8 6 1 6 6 2 4 6 3 4 2 2 8 6 6 3 1 1 2 3 5 4 6 7 4 2 7 3 2 2 3 6 4 10 5 3 1 4 4 3 4 3 3 2 2 6 5 5 7 11 11 11 12 13 14 11 7 4 6
4 1 2 4 4 3 8 9 8 6 5 4 3 2 3 2 7 4 3 4 6 3 2 4 1 2 1 0 1 2 3 3 4 3 2 1 3 1 2 4 6 4 10 8 1 4 1 5 6 2 4 7 3 5 4 6 6 2 1 2 1 2 6 7 4 1 2 2 1 3 3 2 2 2 3 4 5 3 9 12 13 13 13 15 12 9 5 3
6 3 4 4 7 8 10 10 9 3 3 1 1 5 2 3 2 4 5 9 5 4 1 2 2 5 0 3 1 4 1 2 3 2 2 2 1 3 1 2 4 4 6 4 2 3 4 3 4 3 6 5 1 4 2 2 3 5 3 2 1 2 0 2 6 1 1 1 1 2 0 2 5 5 2 4 6 6 7 9 11 12 13 14 13 10 5 5
2 1 4 6 3 11 9 10 4 5 1 2 2 2 3 5 5 7 8 4 6 1 2 0 0 1 3 2 1 1 1 1 1 0 1 2 0 1 1 2 2 6 4 10 4 2 2 2 4 3 5 2 2 5 3 3 1 1 1 4 1 5 3 2 4 4 6 2 1 2 1 3 5 4 9 10 10 11 11 10 13 14 14 13 13 10 7 7
2 2 3 4 2 11 12 8 4 1 1 0 3 3 2 5 8 9 12 9 3 2 1 1 1 2 2 2 7 4 4 4 1 3 3 2 2 3 3 1 2 9 8 1 5 3 2 3 1 7 6 2 1 1 5 6 5 1 2 2 1 0 2 5 1 4 4 5 3 2 1 4 5 3 4 9 9 8 9 9 8 9 11 11 11 9 7 11
3 0 5 3 7 12 10 4 1 0 1 3 1 4 7 4 4 8 9 9 2 2 3 0 1 1 0 3 3 1 1 3 2 2 1 1 1 3 2 2 4 5 3 6 7 3 1 1 2 4 5 2 4 2 3 7 8 6 7 5 5 2 2 4 3 1 3 5 2 3 3 4 5 2 5 7 8 9 9 11 9 9 9 9 5 6 3 5
1 1 4 4 6 13 9 4 2 2 1 3 4 2 4 5 4 9 3 7 4 3 1 1 1 1 1 2 1 2 1 2 1 1 1 3 2 5 7 5 6 2 5 2 3 0 1 2 2 1 1 3 7 10 6 5 4 5 9 6 6 4 5 4 3 4 3 1 5 3 2 4 2 3 4 4 5 7 8 10 10 8 8 10 8 4 6 3
2 4 6 8 5 3 6 0 1 1 2 5 5 7 6 3 4 5 2 4 3 2 3 2 1 3 2 1 3 2 1 1 0 1 2 0 0 4 5 4 3 6 3 4 2 5 4 3 3 4 6 6 6 4 4 1 3 1 1 1 2 2 4 6 6 6 6 3 3 1 0 3 3 0 2 2 3 3 3 9 10 8 7 10 15 11 8 7
2 3 7 6 3 3 3 3 3 5 4 6 3 6 5 3 3 2 2 4 2 3 1 1 3 1 2 1 2 1 1 1 1 3 1 1 0 2 4 3 2 3 3 1 1 5 2 2 5 3 4 7 10 11 10 8 6 2 3 4 2 2 4 2 4 3 5 7 7 7 3 3 1 1 0 3 5 5 6 5 9 9 8 9 10 8 8 8
4 4 5 7 2 4 5 4 4 3 4 5 5 8 7 4 3 2 1 3 2 1 3 3 0 5 2 1 1 0 0 1 1 5 1 0 1 4 9 4 4 1 1 4 3 1 6 1 4 4 4 3 3 4 4 4 6 5 2 5 6 4 5 1 1 1 3 3 5 4 3 3 2 1 2 2 4 4 3 5 4 7 9 9 8 8 10 9
2 1 5 3 2 2 4 1 2 3 3 3 5 6 4 3 3 4 2 1 1 3 0 2 3 5 2 3 3 3 5 3 3 1 3 3 4 2 4 7 3 1 2 4 2 4 2 1 3 3 3 2 2 3 6 1 3 3 9 5 7 4 5 4 5 5 6 5 5 5 5 5 2 4 4 4 6 8 7 5 8 7 6 6 6 8 9 10
1 0 2 3 6 2 2 3 3 1 4 4 2 1 2 3 2 0 1 1 2 3 1 4 2 5 4 5 1 4 3 4 7 4 3 4 2 2 8 5 4 5 8 2 3 3 2 4 2 2 3 3 4 3 3 5 7 5 6 5 6 6 3 4 4 5 5 9 4 2 7 11 10 7 7 6 6 4 4 6 6 6 7 7 7 8 8 9
1 3 1 1 0 3 5 7 2 4 8 4 4 1 2 5 5 2 1 1 1 3 3 3 2 3 6 4 1 2 4 3 4 4 5 3 3 7 6 6 2 8 8 2 5 3 3 1 3 2 3 3 5 7 9 11 9 5 6 6 10 8 11 6 3 3 9 7 9 6 10 9 8 10 8 8 7 8 9 8 6 6 7 5 6 7 8 8
1 2 2 4 3 2 2 9 9 6 4 3 3 3 1 2 7 1 1 1 3 2 1 2 3 5 5 4 3 0 1 3 4 2 2 4 2 3 5 4 5 8 6 4 3 1 2 3 1 1 1 5 10 14 11 14 11 14 14 14 10 9 7 6 4 3 2 1 2 9 6 2 4 6 5 4 2 2 3 4 6 6 6 6 6 7 7 6
3 2 4 4 2 5 5 4 4 6 6 5 1 1 1 1 3 3 1 2 1 1 1 2 6 3 5 7 4 3 1 3 1 1 2 2 7 3 1 1 1 6 5 2 1 3 5 2 4 3 4 4 10 9 5 12 11 13 14 14 14 10 7 7 5 7 11 12 13 11 9 5 4 4 5 5 4 4 6 6 6 6 6 6 6 6 7 7
2 2 1 2 5 5 4 4 4 6 5 5 1 3 2 2 5 1 3 2 2 1 2 1 4 2 2 5 6 5 4 2 4 4 3 0 2 1 1 3 1 3 5 4 2 2 5 1 2 3 5 4 7 6 2 3 13 13 12 13 13 12 9 8 6 5 2 9 11 10 7 1 1 7 7 5 4 4 4 5 5 5 6 6 6 5 7 7
3 2 2 1 1 2 3 5 4 6 3 3 2 1 0 3 2 2 3 3 5 5 2 3 4 7 4 6 3 2 6 4 5 3 1 2 1 1 1 2 2 2 2 1 1 0 1 1 2 2 4 2 2 7 2 1 5 9 10 8 7 6 6 6 11 13 7 2 6 9 5 5 6 8 9 3 5 4 4 4 5 6 6 6 6 5 6 4
Wind_Direction
358 357 355 351 350 346 343 341 339 336 332 332 330 327 326 327 326 325 325 325 324 325 326 327 325 325 325 323 323 325 329 328 319 328 245 241 196 205 179 249 224 204 193 149 183 130 159 196 232 232 229 156 234 238 245 210 125 102 169 136 223 199 144 201 192 188 172 167 146 146 224 182 146 207 206 134 72 130 139 132 118 113 108 115 123 126 130 135
357 357 355 352 348 345 342 340 337 334 332 329 328 326 326 327 326 326 325 327 328 325 326 327 327 324 325 324 327 324 329 301 288 267 234 222 199 203 226 254 348 168 158 177 169 187 158 202 222 196 181 204 182 252 144 178 137 138 187 152 232 189 229 181 201 193 144 207 155 128 158 221 228 163 249 131 141 144 132 126 129 114 116 122 131 132 139 150
356 356 354 350 347 344 341 339 336 333 330 327 325 325 324 325 326 326 327 326 324 327 326 325 326 325 322 324 324 326 334 308 266 263 262 228 215 192 205 211 167 160 163 163 197 195 194 207 207 173 224 265 219 233 211 227 130 307 169 220 243 223 140 183 182 198 199 157 163 130 130 220 211 228 136 135 40 160 140 140 130 131 135 140 140 144 152 147
354 354 353 351 346 345 341 338 336 333 329 326 324 324 325 325 325 326 326 326 324 325 327 326 323 325 322 320 322 330 309 280 318 248 249 187 196 194 197 189 178 182 172 107 165 191 309 307 311 249 245 221 249 223 222 219 149 250 76 170 251 261 171 187 208 185 113 294 159 113 111 147 297 284 172 162 105 144 144 149 142 143 144 143 147 150 144 143
352 353 351 350 348 345 341 338 335 332 328 325 325 324 324 324 325 326 324 324 325 324 324 326 325 320 322 316 319 333 320 40 167 234 268 330 186 185 182 179 182 179 169 144 36 281 274 269 268 278 246 254 227 219 227 128 128 104 128 206 301 311 86 292 215 147 168 187 124 86 124 164 208 260 27 140 128 165 153 145 139 140 144 147 148 140 140 145
349 349 349 348 346 345 341 337 335 331 328 325 323 323 323 323 325 324 323 323 326 323 324 326 324 324 323 321 301 276 13 103 284 273 96 24 137 163 171 173 171 152 150 214 148 285 210 242 194 224 227 214 224 186 356 128 155 94 61 54 11 18 90 39 153 145 168 126 122 89 142 303 197 169 207 142 136 191 142 139 141 141 140 137 134 137 141 145
346 346 345 345 345 343 342 339 335 332 328 326 323 322 322 322 322 323 323 324 323 324 324 326 325 323 329 313 268 260 92 268 297 248 103 100 139 149 158 157 148 134 140 141 205 199 198 233 185 237 260 279 281 108 149 110 99 112 131 115 59 66 80 68 96 134 292 127 137 152 100 260 130 162 166 203 226 145 137 137 137 136 131 133 136 142 143 149
343 343 343 343 342 341 340 339 337 333 331 327 324 322 321 321 323 323 322 322 322 322 324 324 324 326 339 342 183 320 102 258 248 271 107 100 113 132 131 127 134 140 155 193 170 198 197 244 227 238 235 225 220 94 129 92 73 102 110 143 126 91 89 75 78 67 36 32 105 99 164 235 164 180 125 261 143 135 138 135 135 136 135 135 140 145 151 157
341 341 341 339 339 340 340 338 336 335 331 328 325 324 322 322 322 322 321 319 320 318 320 321 323 323 336 282 347 355 268 229 230 130 128 121 124 124 130 139 160 149 181 192 217 191 193 254 239 221 238 223 249 157 162 115 77 96 137 124 106 88 87 76 87 66 234 209 202 175 197 124 191 138 158 165 132 133 135 135 137 138 142 142 145 150 157 165
339 339 339 339 339 339 340 338 335 333 330 328 327 324 321 320 320 319 318 315 314 313 312 319 318 330 327 287 295 47 264 201 125 127 124 126 129 134 162 134 161 151 149 212 169 212 212 227 215 314 290 279 254 238 192 137 160 125 103 92 89 85 105 65 4 172 232 160 324 140 70 81 302 160 117 114 138 135 136 138 140 144 148 147 148 158 164 168
339 338 337 338 338 337 338 337 335 332 330 328 326 322 320 318 319 318 317 314 309 305 307 312 319 324 311 275 113 225 258 9 64 118 136 137 138 150 188 165 169 160 175 166 205 206 227 248 258 297 295 230 334 354 46 107 121 111 111 85 72 86 78 114 180 264 343 15 355 77 85 193 14 96 157 150 142 136 138 141 146 148 150 151 155 163 169 169
339 339 338 336 336 336 336 335 334 332 330 328 324 321 317 317 314 313 312 311 300 304 306 306 313 272 265 88 157 227 261 50 105 145 150 154 164 183 176 174 177 174 167 185 226 224 219 236 284 277 257 347 62 88 68 106 108 130 117 95 57 63 71 20 32 317 353 13 356 313 73 36 9 148 162 146 141 139 140 146 149 151 152 155 164 167 173 173
338 339 338 337 335 335 335 335 334 332 330 326 322 317 314 311 310 305 306 305 280 275 287 304 303 251 334 334 228 241 279 267 272 208 179 189 170 172 177 179 193 184 182 187 225 229 219 238 248 270 258 83 357 35 144 119 118 88 53 113 100 63 33 323 340 351 60 337 353 14 132 256 310 149 151 146 144 142 140 147 153 154 157 163 170 169 176 172
338 337 337 335 335 334 335 334 333 331 328 325 318 314 311 307 302 295 296 283 267 262 259 256 230 281 133 243 278 266 273 275 189 222 202 196 150 194 194 210 201 208 203 213 257 275 273 265 265 261 240 111 161 152 113 115 44 96 128 52 113 118 165 316 13 342 27 307 357 33 132 218 248 209 183 151 148 145 146 151 158 157 162 169 171 167 175 172
337 337 336 335 334 333 334 333 331 329 327 324 318 312 307 303 296 288 282 273 254 256 249 242 257 200 11 272 269 273 269 266 238 214 195 178 186 121 205 218 217 213 217 221 234 251 236 263 278 264 265 134 117 115 120 90 42 140 88 13 340 105 172 309 292 56 141 319 16 37 120 190 201 199 174 156 150 146 147 156 160 160 165 173 158 170 162 168
336 334 334 334 333 333 333 333 329 327 327 323 315 308 302 293 286 279 265 234 234 231 261 303 199 209 331 293 267 309 313 177 250 240 225 177 176 184 191 191 217 233 229 248 237 259 272 269 272 204 167 136 129 123 103 77 344 285 116 161 151 102 162 41 279 116 118 250 345 58 165 152 197 235 174 159 151 148 154 161 161 163 170 168 157 164 155 145
334 332 331 333 334 331 332 332 329 329 326 321 313 303 294 283 270 275 261 194 234 191 208 2 112 182 359 239 313 317 268 241 257 287 204 196 179 175 156 177 228 244 242 258 255 254 266 261 254 208 109 138 137 138 109 331 213 298 50 131 170 151 144 188 329 155 117 69 299 356 132 193 223 180 170 156 156 151 158 163 159 165 172 151 159 159 150 143
333 331 332 331 332 332 331 329 331 330 327 322 311 296 291 283 277 314 267 177 220 209 255 263 247 307 275 327 308 245 244 262 198 217 209 209 178 164 157 186 222 219 228 256 259 227 240 234 132 188 331 168 132 133 146 195 174 182 117 107 115 102 158 152 161 247 98 166 255 342 133 193 216 126 167 159 161 157 166 159 162 165 163 147 156 158 154 145
333 333 328 328 330 330 330 330 331 332 331 324 304 292 272 168 52 171 263 154 123 6 19 194 117 85 243 284 254 272 219 222 189 172 205 209 199 159 179 193 187 163 201 145 290 146 275 38 334 94 243 226 175 162 186 210 183 176 171 168 151 147 188 167 120 28 81 180 141 341 1 249 188 149 129 165 163 163 169 156 160 162 162 146 157 158 156 153
334 330 327 327 325 327 329 330 327 332 339 338 351 356 114 3 12 358 22 288 206 221 253 235 196 276 309 284 284 278 289 131 113 239 166 187 162 177 199 186 158 168 142 184 274 228 163 150 180 208 227 229 208 194 207 206 198 165 150 134 165 144 83 78 82 134 119 103 61 46 335 327 315 15 355 330 217 164 158 154 162 164 163 154 165 161 159 159
329 329 326 324 324 321 326 325 324 327 342 335 310 344 40 152 46 324 288 225 223 239 235 240 192 206 230 270 308 316 343 293 82 230 224 191 98 124 237 175 127 204 209 190 183 259 163 163 229 215 226 220 234 233 232 235 168 148 151 143 167 151 161 169 155 160 138 127 167 160 160 259 322 325 327 325 108 174 160 153 165 166 165 159 164 165 163 173
330 327 326 324 321 323 320 319 320 325 333 288 335 323 263 229 205 157 89 318 296 223 228 243 217 241 253 247 249 248 199 49 329 295 290 137 145 161 259 152 153 200 243 210 231 1 162 209 230 224 228 233 244 246 226 159 164 157 148 155 116 89 80 55 91 143 159 126 159 90 154 201 223 263 287 328 16 74 32 137 172 163 171 152 163 171 162 158
330 328 325 325 325 321 320 313 317 323 303 144 119 237 242 235 306 359 46 263 266 268 211 234 241 223 257 268 244 201 135 174 233 277 221 117 149 185 173 141 197 211 210 182 178 160 214 251 232 226 222 229 253 247 242 185 178 147 111 128 183 160 155 183 210 140 157 193 147 148 161 217 286 277 271 268 227 287 343 94 357 188 172 161 166 174 158 160
328 329 326 326 327 323 314 317 306 277 202 212 243 225 248 273 290 353 27 270 304 303 210 220 206 213 231 248 210 205 177 247 181 243 220 129 166 173 137 176 200 221 217 201 176 181 213 227 209 210 205 216 242 248 235 194 167 193 170 177 143 164 208 164 167 134 118 43 119 118 80 342 255 257 259 250 312 41 353 19 3 356 124 164 170 171 160 159
326 327 328 327 329 324 314 314 20 17 259 183 244 244 251 264 264 148 100 310 314 276 226 214 188 216 234 212 239 208 174 237 209 205 192 140 147 126 217 179 131 223 220 213 192 218 250 249 203 205 209 215 235 253 241 194 159 202 206 179 178 170 154 99 137 134 143 132 211 144 116 216 214 228 231 226 308 188 55 68 277 279 134 153 176 178 169 161
323 321 327 331 327 326 304 331 16 340 311 257 245 272 281 291 262 155 119 38 316 267 340 242 93 227 149 165 155 162 97 248 222 208 184 190 178 148 178 215 154 211 225 205 204 204 231 242 178 212 208 214 223 232 245 194 183 176 223 196 144 154 135 137 147 133 166 189 199 205 159 205 196 211 221 221 212 225 280 206 257 266 175 201 172 183 175 165
322 319 323 331 332 331 351 282 326 305 330 291 281 324 316 310 48 147 60 335 334 258 184 260 62 303 89 199 162 73 43 271 286 159 186 202 173 130 80 259 289 217 186 164 230 259 220 220 209 221 222 216 213 230 242 186 176 203 193 143 149 133 148 162 158 155 103 71 87 173 100 144 190 225 215 199 202 226 239 236 234 243 211 212 192 175 188 167
316 316 318 328 331 340 252 327 338 314 240 264 339 326 319 317 314 62 82 58 289 295 177 263 219 291 30 192 147 141 193 204 16 259 188 198 116 106 184 242 198 241 289 221 209 250 200 219 194 202 221 226 220 221 231 196 181 202 155 151 167 163 154 153 141 128 135 122 144 194 197 66 232 254 175 169 203 231 228 217 217 227 218 214 201 180 194 170
311 312 314 329 318 307 227 224 66 247 240 335 320 312 320 317 45 103 117 120 244 224 276 129 323 123 290 101 220 250 334 103 79 258 348 71 193 132 198 229 236 270 250 212 242 279 256 210 205 198 181 217 237 239 225 148 134 211 158 148 126 115 136 144 131 117 143 97 175 197 188 172 280 194 161 181 215 221 215 212 209 212 209 206 203 182 189 170
308 306 310 324 311 153 139 204 232 240 318 317 306 306 314 12 41 39 8 327 120 272 216 264 31 201 115 171 284 147 292 283 159 10 213 165 240 50 234 177 238 296 287 265 229 236 243 258 175 202 201 214 220 230 212 176 152 128 111 103 82 61 44 7 30 81 87 10 231 195 193 186 233 207 185 167 210 205 192 202 207 205 212 209 206 178 186 170
305 298 285 316 270 285 220 280 250 245 257 297 308 303 354 39 104 103 84 251 312 261 86 28 247 79 113 133 239 264 182 200 187 192 4 257 351 150 7 1 71 252 296 289 280 271 252 266 257 227 210 204 161 212 60 99 124 128 117 121 94 33 35 30 347 338 76 255 268 176 188 188 182 255 209 214 71 171 187 196 195 194 199 213 202 191 183 171
303 289 267 219 246 325 182 228 82 15 343 328 319 8 48 28 10 98 230 331 82 265 168 196 211 155 177 156 168 224 189 205 162 152 193 194 192 138 200 189 179 338 315 271 275 332 268 255 235 264 195 186 218 206 304 93 112 97 105 97 98 67 50 35 331 276 261 216 321 178 155 97 249 228 196 208 219 179 192 196 191 187 187 203 209 191 179 174
303 291 254 234 230 229 244 262 360 350 341 339 8 56 60 90 22 259 298 315 268 176 229 151 181 179 181 137 227 220 186 127 262 233 173 214 149 222 208 194 190 156 236 301 344 353 278 260 242 267 280 205 113 176 157 140 135 132 152 144 104 108 118 170 214 39 313 298 1 131 159 244 259 288 200 196 208 196 189 194 189 183 182 192 203 193 176 172
303 298 249 204 207 223 247 91 75 11 12 353 64 29 64 58 257 242 265 229 243 281 267 167 119 172 140 160 242 149 39 305 87 231 186 186 80 225 295 262 217 190 159 326 309 217 27 333 298 229 264 250 119 148 170 157 131 156 151 164 165 158 161 170 168 177 203 209 347 110 143 229 137 244 313 237 218 198 192 187 181 182 177 179 201 221 176 169
308 295 203 230 237 240 237 219 252 338 335 36 43 86 91 250 251 283 264 279 286 321 347 308 142 145 355 5 327 106 128 247 224 265 198 136 234 194 218 258 227 172 141 43 266 38 197 202 251 215 201 183 187 159 136 90 25 225 157 107 147 202 154 132 191 152 160 146 115 263 211 193 176 218 295 299 197 160 168 176 171 176 173 167 187 231 203 173
324 101 179 223 215 260 180 165 156 203 122 48 69 33 69 203 299 294 275 279 296 317 340 19 49 66 115 344 358 353 10 109 202 219 286 186 195 198 234 235 236 180 151 175 199 321 5 300 274 336 247 171 207 127 156 119 131 260 89 170 214 200 112 113 53 53 101 70 216 185 291 307 297 9 1 18 92 135 154 165 174 177 177 171 182 199 210 182
359 277 307 210 233 176 129 141 155 143 83 90 81 331 219 284 209 252 281 290 276 331 51 63 313 115 245 312 62 350 289 17 218 156 325 41 332 253 218 265 229 203 192 168 312 203 135 252 288 184 251 265 198 125 148 149 159 94 74 236 245 29 104 119 142 298 72 128 254 164 235 293 49 279 346 34 83 128 158 167 175 176 178 178 181 184 192 151
320 290 253 260 232 133 133 145 137 88 82 64 88 225 228 245 243 200 271 301 318 359 109 58 299 108 268 98 279 218 312 83 310 171 130 313 254 249 195 293 278 207 230 163 116 266 111 348 301 284 208 238 32 84 50 326 81 142 193 198 89 285 50 342 98 88 92 280 247 300 294 265 178 230 211 193 166 172 174 171 169 177 182 184 177 177 155 101
259 3 327 251 220 138 137 150 95 85 60 47 278 328 258 234 264 277 279 267 285 135 56 239 206 265 141 104 185 269 34 197 247 65 121 187 169 311 338 190 287 327 298 155 184 279 48 159 290 325 10 257 27 92 189 280 317 160 285 358 206 109 158 129 211 159 112 204 70 291 65 248 212 216 189 198 191 179 172 173 180 180 183 183 178 169 140 117
355 33 291 261 149 126 136 126 70 62 59 201 226 234 249 300 295 301 314 313 292 70 265 328 319 42 14 177 150 191 226 229 174 246 150 241 204 283 322 1 16 330 322 206 177 216 258 120 282 284 332 69 100 163 184 180 157 108 273 327 340 315 211 119 122 134 159 163 179 167 317 274 255 201 199 208 191 191 175 174 174 177 181 179 177 154 114 124
315 82 272 281 104 124 116 64 76 210 207 268 227 271 297 275 299 301 288 299 238 190 143 118 345 121 177 84 277 329 16 203 198 189 115 329 139 340 286 319 356 309 344 26 56 360 83 56 168 303 12 13 248 245 198 165 155 166 169 200 179 117 107 137 248 2 93 99 187 122 233 260 264 179 216 204 187 164 175 176 175 175 172 161 118 115 113 105
37 347 262 340 110 132 117 134 268 175 176 255 249 232 282 277 279 294 315 349 57 1 336 73 340 117 29 35 140 251 116 351 279 117 175 158 196 132 260 324 324 349 64 49 283 291 152 141 106 335 204 256 278 286 257 219 181 176 159 226 174 154 120 101 157 258 65 147 118 147 134 273 239 209 209 210 163 168 170 168 174 171 161 162 164 141 141 136
55 221 260 281 254 167 97 264 295 4 240 246 246 258 253 267 280 268 337 357 358 348 26 17 296 40 20 106 358 45 70 315 346 278 208 148 191 186 267 344 302 39 95 345 338 326 65 54 22 310 315 311 307 284 19 38 208 146 269 182 125 188 171 171 184 182 138 150 63 27 222 249 282 112 225 168 162 133 137 163 162 162 147 165 167 170 159 147
295 284 308 289 198 167 92 210 277 267 263 285 276 271 277 262 250 300 24 359 15 346 36 338 356 94 259 65 66 353 150 51 297 77 332 37 318 235 298 335 14 42 52 241 98 299 61 319 110 19 2 337 344 358 4 352 43 54 316 288 213 196 197 166 100 70 106 208 162 126 212 274 274 173 287 124 151 153 148 160 158 156 159 165 169 165 155 142
288 263 236 287 345 139 220 190 175 241 269 278 297 304 312 333 278 113 105 0 337 21 31 341 192 350 323 317 40 174 186 117 272 341 64 314 358 340 330 355 75 97 188 201 162 89 83 11 80 86 88 56 359 11 318 329 303 293 291 338 320 296 283 318 182 119 128 244 126 138 235 260 279 176 204 148 151 143 160 150 149 157 159 162 163 163 155 153
3 17 301 335 325 177 248 202 169 204 290 298 294 277 295 306 318 7 48 50 324 345 323 275 328 16 348 29 14 3 8 36 88 22 30 358 354 306 281 359 50 235 256 39 74 80 128 62 97 145 147 176 210 223 250 196 323 12 327 5 352 18 38 103 107 133 191 188 192 238 171 160 211 216 210 191 177 167 151 147 152 158 158 147 151 152 158 162
314 188 292 329 328 345 292 327 282 153 223 193 230 248 271 281 255 312 240 91 336 48 325 25 359 15 348 6 21 50 348 13 11 57 3 17 286 291 311 354 345 1 351 34 73 76 66 48 299 134 178 198 195 216 288 354 353 354 26 353 343 26 28 95 147 220 175 110 205 252 154 148 209 191 198 185 199 176 154 155 161 158 159 156 150 149 145 151
56 265 47 22 246 259 6 316 307 283 281 264 235 274 296 317 301 268 1 65 65 39 74 317 28 5 76 74 37 44 353 36 40 18 336 338 4 347 4 342 34 351 21 29 30 98 129 114 279 7 360 341 3 357 10 35 40 23 17 14 11 10 28 32 306 204 151 151 187 211 171 171 189 191 185 185 182 184 178 175 165 148 131 123 133 138 142 147
212 303 309 2 353 276 242 256 281 287 266 242 213 241 237 304 319 345 142 3 41 335 73 29 318 57 52 52 80 136 19 53 341 320 37 328 26 360 355 343 334 3 30 16 12 87 83 19 279 1 14 14 14 16 31 69 39 34 21 10 5 9 7 32 41 0 236 126 223 128 96 52 191 181 160 156 135 153 135 106 110 126 138 133 127 123 118 123
358 21 317 340 256 282 272 283 321 359 347 320 359 269 288 279 283 322 348 101 74 320 37 52 341 15 72 56 61 45 320 147 113 358 285 356 336 31 321 176 280 326 32 343 42 325 98 326 351 32 46 11 37 30 53 89 76 49 19 10 6 345 4 15 30 41 71 65 84 88 84 65 332 80 79 68 64 77 96 111 121 122 123 124 123 121 120 120
283 265 279 301 323 277 315 339 356 349 328 313 334 288 354 336 300 132 36 5 113 79 357 84 42 332 36 65 55 9 338 51 11 17 298 261 1 257 78 292 123 356 350 357 19 337 67 267 63 58 61 346 37 359 63 83 84 60 25 6 356 0 6 342 29 349 28 126 112 90 89 82 313 93 88 80 85 93 102 104 105 108 110 115 121 120 134 134
281 262 271 186 257 285 354 312 333 13 303 237 175 251 218 265 327 65 45 318 21 33 353 105 110 83 348 27 5 325 318 345 319 311 283 245 197 348 126 229 343 21 314 336 290 47 143 112 45 28 70 293 42 13 0 1 29 34 2 338 330 357 4 355 20 20 21 333 92 131 172 185 162 129 116 120 116 86 79 83 89 80 93 115 123 125 126 125